[[{"header":{"parameterUnit":"m.s-1","parameterCategory":1,"la1":30.2991,"la2":30.254,"lo1":-89.0895,"lo2":-89.0444,"dy":0.0017,"dx":0.0017,"nx":28,"ny":28,"refTime":"2025-09-07T03:00:00:Z","depth":0,"parameterNumber":2,"parameterNumberName":"U-component_of_WINDS"},"data":[0,0,0,0,0,0,0,0,0,0,0,0,0,0,0,0,0,0,0,0,0,0,0,0,0,0,0,0,0,0,0,0,0,0,0,0,0,0,0,0,0,0,0,0,0,0,0,0,0,0,0,0,0,0,0,0,0,0,0.2504,0.2505,0,0.2573,0.2574,0.2574,0.2575,0.2574,0.2573,0.2572,0.2643,0.2646,0.2648,0,0,0,0,0,0,0,0,0,0,0,0,0,0.2375,0.2378,0.2504,0.2505,0.2506,0.2573,0.2574,0.2575,0.2575,0.2574,0.2573,0.2572,0.2642,0.2645,0.2649,0,0,0,0,0,0,0,0,0,0,0,0,0,0.2436,0.2379,0.2504,0.2514,0.2516,0.2573,0.2574,0.2575,0.2575,0.2574,0.2573,0.2571,0.2641,0.2645,0.2649,0.2701,0,0,0.2662,0.2663,0,0,0,0,0,0,0,0,0.2433,0.2441,0.2512,0.2514,0.2516,0.2564,0.2554,0.2617,0.2576,0.2553,0.2572,0.2571,0.2618,0.2624,0.264,0.2704,0.2707,0.2662,0.2664,0.2666,0.2667,0,0,0,0,0,0,0,0.2429,0.2438,0.2532,0.2513,0.2515,0.2516,0.2523,0.2566,0.2592,0.2555,0.2555,0.2563,0.2619,0.2636,0.2641,0.2708,0.2662,0.2665,0.2668,0.267,0.2819,0.2821,0,0,0,0,0,0,0.2422,0.2435,0.2529,0.2534,0.247,0.2519,0.2527,0.255,0.2591,0.2597,0.2564,0.2563,0.2629,0.2637,0.2644,0.2707,0.2666,0.267,0.2672,0.2818,0.282,0.2821,0,0,0,0,0,0,0.242,0.2431,0.2527,0.2484,0.2496,0.2523,0.2548,0.2552,0.2569,0.2598,0.2603,0.2576,0.2629,0.2638,0.2687,0.271,0.2672,0.2675,0.2816,0.2818,0.282,0.2835,0,0,0,0,0,0,0.2416,0.243,0.2449,0.2485,0.2499,0.2568,0.255,0.2554,0.2576,0.2575,0.2611,0.2616,0.2628,0.2681,0.2691,0.2715,0.2679,0.2814,0.2817,0.282,0.2832,0.2837,0.2841,0,0,0,0,0,0.2411,0.245,0.245,0.2462,0.2523,0.2569,0.2577,0.259,0.2578,0.2598,0.2617,0.2615,0.2706,0.2686,0.2697,0.2723,0.2812,0.2816,0.2819,0.283,0.2836,0.2841,0,0,0,0,0,0,0.2417,0.2455,0.2455,0.2507,0.2535,0.2569,0.2595,0.2596,0.2628,0.2626,0.2641,0.2649,0.2698,0.2715,0.2692,0.2775,0.2758,0.2764,0.2762,0.2768,0.2772,0.2767,0.2682,0,0,0,0,0,0.2424,0.2458,0.249,0.2532,0.2546,0.2568,0.2588,0.2596,0.2626,0.2637,0.266,0.2689,0.2724,0.2747,0.2781,0.2835,0.2843,0.2858,0.2863,0.2866,0.2871,0.2902,0.2909,0.2833,0.2833,0.2832,0,0,0.2439,0.2465,0.2485,0.2534,0.2556,0.2591,0.2578,0.2615,0.2642,0.2643,0.269,0.2708,0.2742,0.2793,0.2817,0.2809,0.2894,0.2871,0.2873,0.2876,0.2906,0.2913,0.292,0.2835,0.2834,0.2834,0,0,0.2485,0.2507,0.2546,0.2569,0.2603,0.2617,0.2627,0.2661,0.2673,0.2721,0.2723,0.2755,0.2815,0.2839,0.2859,0.2915,0.2915,0.2925,0.2949,0.2979,0.2985,0.2991,0.3011,0.3018,0.293,0.293,0.293,0,0.25,0.2552,0.2565,0.2603,0.2625,0.2628,0.2667,0.2689,0.2733,0.2748,0.2738,0.2814,0.2837,0.2895,0.2909,0.2924,0.2936,0.2921,0.2983,0.2989,0.2994,0.3014,0.3021,0.2931,0.2931,0.2931,0.2931,0,0.2569,0.2606,0.2633,0.2675,0.27,0.2738,0.2757,0.2781,0.2787,0.2803,0.2852,0.2879,0.2919,0.2933,0.2939,0.2992,0.2986,0.298,0.2963,0.3002,0.3021,0.3029,0.2933,0.2933,0.2932,0.2932,0,0,0.262,0.2669,0.2679,0.2699,0.2737,0.2766,0.2805,0.2844,0.2864,0.2895,0.2928,0.2979,0.2973,0.2996,0.3005,0.3031,0.3075,0.3021,0.3022,0.3031,0.3136,0.3141,0.3149,0.3075,0.3076,0.3077,0.3133,0,0.267,0.2739,0.2752,0.2812,0.2847,0.2851,0.2885,0.2912,0.2928,0.296,0.2978,0.3014,0.3004,0.3018,0.3044,0.3064,0.3096,0.306,0.3107,0.3108,0.3098,0.3159,0.3164,0.3215,0.314,0.3142,0.3143,0,0.2737,0.277,0.2833,0.2868,0.2883,0.2914,0.2951,0.2981,0.3013,0.3023,0.3049,0.3055,0.3096,0.3077,0.3134,0.311,0.313,0.3142,0.3145,0.315,0.3128,0.3166,0.3231,0.3239,0.3154,0.3153,0.3153,0,0.2768,0.2828,0.2874,0.289,0.2932,0.2954,0.2972,0.3003,0.3026,0.3058,0.3074,0.3111,0.3131,0.316,0.3176,0.3161,0.3233,0.3215,0.3243,0.3242,0.3257,0.3256,0.3328,0.327,0.327,0.327,0.327,0,0.2823,0.2862,0.2888,0.2917,0.2961,0.2976,0.3019,0.3038,0.3065,0.3097,0.3103,0.3133,0.3153,0.3186,0.3199,0.3245,0.3254,0.3264,0.3267,0.3263,0.3262,0.3277,0.3273,0.3272,0.3271,0.3271,0.3271,0,0.2865,0.2884,0.2935,0.297,0.298,0.3011,0.3042,0.307,0.3087,0.3127,0.3138,0.3164,0.3203,0.3222,0.3271,0.328,0.3332,0.3333,0.3322,0.3323,0.335,0.3347,0.3433,0.3445,0.3379,0.338,0.338,0,0.2898,0.2929,0.2968,0.299,0.3009,0.3045,0.3068,0.3085,0.3109,0.3148,0.3172,0.3212,0.3244,0.3308,0.3331,0.3369,0.337,0.3398,0.3376,0.3372,0.3371,0.3369,0.3373,0.3402,0.3402,0.3403,0.3403,0,0.2956,0.2964,0.2998,0.3036,0.3064,0.3094,0.3124,0.3142,0.3163,0.3191,0.3231,0.3257,0.3307,0.3347,0.3386,0.3406,0.3409,0.341,0.3419,0.3415,0.3408,0.3413,0.3333,0.3408,0.3408,0.3407,0.3407,0.3407,0.2995,0.3022,0.3055,0.3092,0.3117,0.3145,0.3173,0.3193,0.3227,0.327,0.3278,0.3321,0.3353,0.3407,0.3428,0.3462,0.3456,0.3468,0.3471,0.3474,0.3475,0.3402,0.3469,0.3469,0.3469,0.3469,0.3469,0,0.3053,0.3074,0.3109,0.3151,0.3181,0.3181,0.3214,0.3239,0.3277,0.3307,0.334,0.3387,0.3426,0.3452,0.3492,0.3514,0.3517,0.3524,0.3523,0.3527,0.3479,0.3467,0.3522,0.3522,0.3522,0.3522,0.3522,0.3522,0.3087,0.3133,0.3146,0.3205,0.3226,0.3268,0.3288,0.3314,0.3338,0.339,0.3422,0.344,0.3469,0.3511,0.3546,0.3553,0.3568,0.3576,0.3582,0.3536,0.3531,0.3525,0.3515,0.3579,0.3579,0.3628,0.3629,0.3629]},{"header":{"parameterUnit":"m.s-1","parameterCategory":1,"la1":30.2991,"la2":30.254,"lo1":-89.0895,"lo2":-89.0444,"dy":0.0017,"dx":0.0017,"nx":28,"ny":28,"refTime":"2025-09-07T03:00:00:Z","depth":0,"parameterNumber":3,"parameterNumberName":"V-component_of_WINDS"},"data":[0,0,0,0,0,0,0,0,0,0,0,0,0,0,0,0,0,0,0,0,0,0,0,0,0,0,0,0,0,0,0,0,0,0,0,0,0,0,0,0,0,0,0,0,0,0,0,0,0,0,0,0,0,0,0,0,0,0,-1.3607,-1.3608,0,-1.3618,-1.3618,-1.3619,-1.368,-1.3681,-1.3683,-1.3684,-1.369,-1.3688,-1.3687,0,0,0,0,0,0,0,0,0,0,0,0,0,-1.3637,-1.3636,-1.3607,-1.3608,-1.3608,-1.3618,-1.3618,-1.3619,-1.3679,-1.3681,-1.3683,-1.3685,-1.369,-1.3689,-1.3687,0,0,0,0,0,0,0,0,0,0,0,0,0,-1.3633,-1.3636,-1.3607,-1.3639,-1.3642,-1.3618,-1.3618,-1.3619,-1.3679,-1.3681,-1.3683,-1.3685,-1.3691,-1.3689,-1.3687,-1.3631,0,0,-1.3681,-1.3681,0,0,0,0,0,0,0,0,-1.3633,-1.3632,-1.3635,-1.3637,-1.3641,-1.365,-1.3631,-1.3623,-1.3678,-1.3665,-1.3684,-1.3687,-1.3674,-1.3674,-1.3671,-1.3631,-1.3632,-1.3681,-1.368,-1.3679,-1.3679,0,0,0,0,0,0,0,-1.3634,-1.3632,-1.3612,-1.3635,-1.3638,-1.3653,-1.3654,-1.363,-1.3657,-1.3666,-1.3671,-1.3671,-1.3676,-1.3673,-1.3671,-1.3632,-1.3681,-1.368,-1.3678,-1.3678,-1.355,-1.3548,0,0,0,0,0,0,-1.363,-1.3632,-1.3611,-1.3612,-1.3643,-1.365,-1.3652,-1.3645,-1.3657,-1.3661,-1.367,-1.3674,-1.3675,-1.3674,-1.3672,-1.3609,-1.3679,-1.3678,-1.3676,-1.3552,-1.3549,-1.3547,0,0,0,0,0,0,-1.363,-1.3627,-1.3611,-1.3623,-1.3622,-1.3647,-1.3638,-1.3644,-1.364,-1.366,-1.3665,-1.3661,-1.3676,-1.3675,-1.3642,-1.361,-1.3677,-1.3675,-1.3555,-1.3551,-1.3548,-1.3481,0,0,0,0,0,0,-1.3631,-1.3627,-1.3606,-1.3622,-1.3621,-1.3581,-1.3636,-1.3642,-1.3637,-1.3644,-1.3653,-1.3657,-1.3678,-1.3644,-1.364,-1.3608,-1.3674,-1.3558,-1.3553,-1.3549,-1.3486,-1.3476,-1.3467,0,0,0,0,0,-1.3632,-1.3585,-1.3605,-1.3602,-1.3596,-1.3579,-1.3578,-1.3605,-1.3634,-1.3614,-1.3627,-1.3656,-1.3615,-1.364,-1.3636,-1.3603,-1.356,-1.3555,-1.355,-1.349,-1.3478,-1.3467,0,0,0,0,0,0,-1.3562,-1.3588,-1.361,-1.3567,-1.3571,-1.3589,-1.3563,-1.359,-1.3584,-1.359,-1.3622,-1.3624,-1.3586,-1.3592,-1.362,-1.3552,-1.3592,-1.3586,-1.3549,-1.3537,-1.3527,-1.3526,-1.3672,0,0,0,0,0,-1.3542,-1.3527,-1.355,-1.351,-1.3511,-1.3537,-1.3531,-1.3552,-1.3556,-1.3557,-1.3568,-1.3569,-1.3557,-1.3547,-1.3537,-1.3488,-1.3492,-1.3464,-1.3454,-1.3446,-1.344,-1.3416,-1.3404,-1.353,-1.353,-1.353,0,0,-1.3499,-1.3512,-1.35,-1.3497,-1.3502,-1.3485,-1.3538,-1.3517,-1.3505,-1.3553,-1.3523,-1.3532,-1.3536,-1.3496,-1.3478,-1.3499,-1.3407,-1.344,-1.3433,-1.3431,-1.341,-1.3398,-1.3387,-1.3527,-1.3527,-1.3528,0,0,-1.3414,-1.3422,-1.3391,-1.3396,-1.3404,-1.3423,-1.3415,-1.3431,-1.3439,-1.3411,-1.3447,-1.3433,-1.341,-1.3413,-1.3411,-1.3331,-1.3358,-1.3327,-1.3275,-1.3252,-1.3242,-1.3233,-1.3205,-1.3194,-1.3321,-1.3321,-1.332,0,-1.3359,-1.3337,-1.3371,-1.3349,-1.3347,-1.3394,-1.3362,-1.3365,-1.3368,-1.3366,-1.339,-1.3365,-1.3371,-1.3332,-1.3314,-1.331,-1.3303,-1.3324,-1.3241,-1.3233,-1.3225,-1.3198,-1.3188,-1.3317,-1.3317,-1.3318,-1.3318,0,-1.327,-1.3254,-1.3228,-1.3233,-1.3229,-1.3202,-1.3231,-1.3222,-1.3245,-1.3261,-1.3233,-1.3242,-1.3236,-1.3229,-1.3249,-1.3194,-1.3207,-1.3235,-1.3277,-1.3209,-1.3184,-1.3174,-1.3311,-1.3313,-1.3314,-1.3315,0,0,-1.3136,-1.3165,-1.3154,-1.3158,-1.3173,-1.3161,-1.3138,-1.3134,-1.3126,-1.3128,-1.3108,-1.3091,-1.3119,-1.3117,-1.3139,-1.3118,-1.3056,-1.315,-1.3151,-1.3132,-1.2996,-1.2974,-1.2961,-1.3075,-1.3073,-1.3072,-1.2996,0,-1.3054,-1.3016,-1.3048,-1.3004,-1.299,-1.3037,-1.3017,-1.3023,-1.3038,-1.3029,-1.3045,-1.3032,-1.307,-1.3069,-1.3052,-1.3067,-1.3029,-1.3073,-1.3056,-1.3055,-1.3052,-1.2949,-1.2924,-1.2851,-1.2987,-1.2985,-1.2984,0,-1.2952,-1.2953,-1.2908,-1.2929,-1.2925,-1.2906,-1.2906,-1.2897,-1.2906,-1.2919,-1.2919,-1.2948,-1.2926,-1.2969,-1.294,-1.2969,-1.2965,-1.2972,-1.297,-1.2968,-1.3014,-1.2943,-1.2829,-1.2817,-1.2969,-1.297,-1.2971,0,-1.2858,-1.2849,-1.2821,-1.2824,-1.2847,-1.2833,-1.2842,-1.2854,-1.2851,-1.2852,-1.285,-1.2847,-1.2845,-1.2842,-1.287,-1.2898,-1.2837,-1.2882,-1.2846,-1.2846,-1.2829,-1.2829,-1.2712,-1.2828,-1.2829,-1.2829,-1.2829,0,-1.2762,-1.2733,-1.278,-1.2763,-1.2732,-1.277,-1.2738,-1.2752,-1.2763,-1.2749,-1.279,-1.2775,-1.2814,-1.2804,-1.2825,-1.2798,-1.2797,-1.2806,-1.2812,-1.2802,-1.28,-1.2797,-1.2803,-1.2826,-1.2827,-1.2827,-1.2828,0,-1.2651,-1.2682,-1.2655,-1.2682,-1.2688,-1.2664,-1.2686,-1.2672,-1.2692,-1.2674,-1.2672,-1.2702,-1.2693,-1.2722,-1.2716,-1.2731,-1.2692,-1.2706,-1.2689,-1.2693,-1.2656,-1.2658,-1.2531,-1.2516,-1.2643,-1.2642,-1.2641,0,-1.2587,-1.2566,-1.2592,-1.2587,-1.2595,-1.2585,-1.2584,-1.2621,-1.2617,-1.2629,-1.2613,-1.2608,-1.2606,-1.2589,-1.261,-1.2607,-1.2621,-1.2577,-1.262,-1.2612,-1.262,-1.262,-1.2618,-1.2567,-1.2565,-1.2564,-1.2563,0,-1.2469,-1.2487,-1.2483,-1.2486,-1.2484,-1.2487,-1.2493,-1.2486,-1.2527,-1.2521,-1.2513,-1.2512,-1.2509,-1.2503,-1.2506,-1.2514,-1.2545,-1.255,-1.2541,-1.2529,-1.252,-1.2525,-1.2663,-1.2551,-1.2553,-1.2553,-1.2554,-1.2554,-1.2379,-1.2364,-1.2381,-1.2376,-1.2386,-1.2392,-1.238,-1.24,-1.2396,-1.2397,-1.242,-1.2409,-1.2422,-1.2428,-1.2435,-1.2426,-1.2446,-1.2434,-1.2431,-1.2427,-1.242,-1.2524,-1.2427,-1.2427,-1.2427,-1.2428,-1.2428,0,-1.2263,-1.2278,-1.2274,-1.2283,-1.228,-1.2313,-1.2323,-1.2317,-1.2307,-1.2318,-1.2317,-1.2309,-1.2306,-1.2328,-1.2327,-1.2316,-1.2331,-1.2315,-1.2315,-1.2317,-1.2402,-1.2409,-1.2303,-1.2303,-1.2304,-1.2304,-1.2304,-1.2304,-1.2203,-1.2179,-1.2199,-1.2181,-1.2196,-1.2186,-1.2189,-1.2195,-1.2204,-1.2195,-1.2193,-1.2209,-1.2225,-1.2227,-1.2225,-1.2232,-1.2229,-1.2208,-1.2219,-1.2298,-1.231,-1.2322,-1.2329,-1.2208,-1.2207,-1.2135,-1.2134,-1.2133]}]]